Weather History for Burlington, WA

Change the Weather History Date:

Tuesday, October 2, 2012

  Actual Average Record
Temperature  
Mean Temperature 52 °F -  
Max Temperature 59 °F 63 °F 76 °F (1975)
Min Temperature 46 °F 44 °F 33 °F (1968)
Degree Days  
Heating Degree Days 12    
Growing Degree Days 2 (Base 50)    
Moisture  
Dew Point 41 °F    
Average Humidity 63    
Maximum Humidity 88    
Minimum Humidity 41    
Precipitation  
Precipitation 0.00 in - - ()
Sea Level Pressure  
Sea Level Pressure 30.22 in    
Wind  
Wind Speed 11 mph (NNW)    
Max Wind Speed 22 mph    
Max Gust Speed 29 mph    
Visibility 10 miles    
Events      
Averages and records for this station are not official NWS values.
T = Trace of Precipitation, MM = Missing Value Source: NWS Daily Summary

Daily Weather History Graph

Daily Weather History Graph

Search for Another Location

Airport:

Trip Planner

Search our weather history database for the weather conditions in past years. The results will help you decide how hot, cold, wet, or windy it might be!

Date:

Astronomy

Oct. 02, 2012 Rise Set
Actual Time 7:11 AM PDT 6:45 PM PDT
Civil Twilight 6:40 AM PDT 7:16 PM PDT
Nautical Twilight 6:03 AM PDT 7:52 PM PDT
Astronomical Twilight 5:26 AM PDT 8:29 PM PDT
Moon 7:44 PM PDT (10/2) 10:00 AM PDT (10/2)
Length of Visible Light 12h 36m
Length of Day
11h 34m
Waning Gibbous, 93% of the Moon is Illuminated
Oct 2
Waning Gibbous
Oct 8
Last Quarter
Oct 15
New
Oct 21
First Quarter
Oct 29
Full

Hourly Weather History & Observations

Time (PDT) Temp. Windchill Dew Point Humidity Pressure Visibility Wind Dir Wind Speed Gust Speed Precip Events Conditions
2:35 AM 53.6 °F - 46.4 °F 77% 30.20 in 10.0 mi NNE 9.2 mph - 0.00 in   Clear
2:55 AM 51.8 °F - 46.4 °F 82% 30.19 in 10.0 mi North 10.4 mph - 0.00 in   Clear
3:15 AM 51.8 °F - 44.6 °F 76% 30.19 in 10.0 mi NE 6.9 mph - 0.00 in   Clear
3:35 AM 51.8 °F - 44.6 °F 76% 30.20 in 10.0 mi NE 5.8 mph - 0.00 in   Clear
3:55 AM 51.8 °F - 44.6 °F 76% 30.20 in 10.0 mi NNE 6.9 mph - 0.00 in   Clear
4:15 AM 51.8 °F - 42.8 °F 71% 30.20 in 10.0 mi NNE 5.8 mph - 0.00 in   Scattered Clouds
4:35 AM 51.8 °F - 41.0 °F 67% 30.20 in 10.0 mi North 6.9 mph - 0.00 in   Partly Cloudy
4:55 AM 51.8 °F - 39.2 °F 62% 30.20 in 10.0 mi North 8.1 mph - 0.00 in   Clear
5:15 AM 50.0 °F - 41.0 °F 71% 30.21 in 10.0 mi NNE 5.8 mph - 0.00 in   Clear
5:35 AM 48.2 °F - 41.0 °F 76% 30.21 in 10.0 mi NNE 4.6 mph - 0.00 in   Clear
6:15 AM 46.4 °F 44.3 °F 39.2 °F 76% 30.21 in 10.0 mi NE 4.6 mph - 0.00 in   Clear
6:35 AM 50.0 °F - 39.2 °F 66% 30.20 in 10.0 mi North 8.1 mph - 0.00 in   Clear
6:55 AM 51.8 °F - 37.4 °F 58% 30.20 in 10.0 mi North 11.5 mph - 0.00 in   Clear
7:15 AM 50.0 °F - 37.4 °F 62% 30.20 in 4.0 mi North 8.1 mph - 0.00 in   Clear
7:35 AM 48.2 °F - 37.4 °F 66% 30.21 in 10.0 mi North 6.9 mph - 0.00 in   Clear
7:55 AM 50.0 °F - 35.6 °F 58% 30.21 in 9.0 mi North 6.9 mph - 0.00 in   Clear
8:15 AM 51.8 °F - 35.6 °F 54% 30.22 in 10.0 mi North 5.8 mph - 0.00 in   Clear
8:35 AM 51.8 °F - 35.6 °F 54% 30.21 in 10.0 mi NNE 8.1 mph - 0.00 in   Clear
8:55 AM 53.6 °F - 35.6 °F 51% 30.22 in 9.0 mi North 9.2 mph - 0.00 in   Clear
9:15 AM 55.4 °F - 35.6 °F 47% 30.22 in 9.0 mi North 9.2 mph - 0.00 in   Clear
9:35 AM 55.4 °F - 35.6 °F 47% 30.22 in 10.0 mi North 9.2 mph - 0.00 in   Clear
9:55 AM 55.4 °F - 33.8 °F 44% 30.22 in 10.0 mi NNW 13.8 mph 19.6 mph 0.00 in   Clear
10:15 AM 55.4 °F - 35.6 °F 47% 30.22 in 10.0 mi North 12.7 mph 16.1 mph 0.00 in   Clear
10:35 AM 55.4 °F - 35.6 °F 47% 30.22 in 9.0 mi North 11.5 mph - 0.00 in   Partly Cloudy
10:55 AM 55.4 °F - 35.6 °F 47% 30.23 in 10.0 mi North 12.7 mph 19.6 mph 0.00 in   Clear
11:15 AM 57.2 °F - 35.6 °F 44% 30.23 in 10.0 mi North 18.4 mph - 0.00 in   Clear
11:35 AM 57.2 °F - 33.8 °F 41% 30.22 in 9.0 mi NNW 16.1 mph 24.2 mph 0.00 in   Clear
11:55 AM 57.2 °F - 33.8 °F 41% 30.22 in 4.0 mi North 21.9 mph 25.3 mph 0.00 in   Partly Cloudy
12:15 PM 57.2 °F - 33.8 °F 41% 30.22 in 10.0 mi NNW 18.4 mph 27.6 mph 0.00 in   Partly Cloudy
12:35 PM 57.2 °F - 35.6 °F 44% 30.23 in 10.0 mi North 21.9 mph 28.8 mph 0.00 in   Clear
12:55 PM 57.2 °F - 35.6 °F 44% 30.23 in 10.0 mi NNW 18.4 mph 26.5 mph 0.00 in   Clear
1:15 PM 57.2 °F - 37.4 °F 48% 30.22 in 10.0 mi North 19.6 mph 26.5 mph 0.00 in   Clear
1:35 PM 57.2 °F - 39.2 °F 51% 30.22 in 10.0 mi NNW 16.1 mph 24.2 mph 0.00 in   Clear
1:55 PM 57.2 °F - 39.2 °F 51% 30.22 in 10.0 mi NNW 19.6 mph 23.0 mph 0.00 in   Clear
2:15 PM 57.2 °F - 39.2 °F 51% 30.21 in 10.0 mi NNW 17.3 mph 24.2 mph 0.00 in   Clear
2:35 PM 57.2 °F - 39.2 °F 51% 30.21 in 8.0 mi NW 20.7 mph 24.2 mph 0.00 in   Clear
2:55 PM 59.0 °F - 41.0 °F 51% 30.21 in 9.0 mi NW 21.9 mph - 0.00 in   Clear
3:15 PM 57.2 °F - 42.8 °F 59% 30.22 in 10.0 mi NNW 11.5 mph - 0.00 in   Clear
3:35 PM 57.2 °F - 42.8 °F 59% 30.22 in 10.0 mi NW 15.0 mph 19.6 mph 0.00 in   Clear
3:55 PM 57.2 °F - 42.8 °F 59% 30.22 in 10.0 mi WNW 15.0 mph - 0.00 in   Clear
4:15 PM 57.2 °F - 42.8 °F 59% 30.22 in 10.0 mi NW 13.8 mph - 0.00 in   Clear
4:35 PM 57.2 °F - 44.6 °F 63% 30.22 in 10.0 mi WNW 11.5 mph 17.3 mph 0.00 in   Clear
4:55 PM 57.2 °F - 44.6 °F 63% 30.22 in 10.0 mi WNW 13.8 mph - 0.00 in   Clear
5:15 PM 55.4 °F - 44.6 °F 67% 30.22 in 1.8 mi WNW 12.7 mph 18.4 mph 0.00 in   Clear
5:35 PM 55.4 °F - 44.6 °F 67% 30.21 in 10.0 mi WNW 6.9 mph - 0.00 in   Clear
5:55 PM 55.4 °F - 44.6 °F 67% 30.22 in 10.0 mi WNW 9.2 mph - 0.00 in   Clear
6:15 PM 53.6 °F - 46.4 °F 77% 30.22 in 10.0 mi WNW 9.2 mph - 0.00 in   Clear
6:35 PM 53.6 °F - 46.4 °F 77% 30.23 in 10.0 mi WNW 6.9 mph - 0.00 in   Clear
7:15 PM 51.8 °F - 46.4 °F 82% 30.24 in 10.0 mi WNW 6.9 mph - 0.00 in   Clear
7:35 PM 51.8 °F - 48.2 °F 88% 30.23 in 10.0 mi NW 11.5 mph - 0.00 in   Clear
8:15 PM 51.8 °F - 48.2 °F 88% 30.24 in 10.0 mi NNW 13.8 mph 17.3 mph 0.00 in   Clear
8:35 PM 51.8 °F - 46.4 °F 82% 30.25 in 10.0 mi NNW 15.0 mph - 0.00 in   Clear
8:55 PM 53.6 °F - 46.4 °F 77% 30.25 in 10.0 mi NNW 15.0 mph - 0.00 in   Clear
9:15 PM 53.6 °F - 46.4 °F 77% 30.26 in 10.0 mi NNW 16.1 mph - 0.00 in   Clear
9:35 PM 51.8 °F - 46.4 °F 82% 30.26 in 10.0 mi NNW 17.3 mph - 0.00 in   Clear
9:55 PM 51.8 °F - 44.6 °F 76% 30.27 in 10.0 mi NNW 12.7 mph - 0.00 in   Clear
10:15 PM 51.8 °F - 46.4 °F 82% 30.27 in 10.0 mi NW 15.0 mph - 0.00 in   Clear
10:35 PM 51.8 °F - 46.4 °F 82% 30.28 in 10.0 mi NNW 11.5 mph - 0.00 in   Clear
11:55 PM 48.2 °F - 39.2 °F 71% 30.31 in 10.0 mi NE 6.9 mph - 0.00 in   Clear